Weather History for Juan Santamaria, Costa Rica

Change the Weather History Date:

Monday, March 18, 2013

  Actual Average Record
Temperature  
Mean Temperature 76 °F -  
Max Temperature 89 °F 83 °F - ()
Min Temperature 63 °F 65 °F - ()
Cooling Degree Days 11    
Growing Degree Days 26 (Base 50)    
Moisture  
Dew Point 62 °F    
Average Humidity 63    
Maximum Humidity 83    
Minimum Humidity 27    
Precipitation  
Precipitation 0.00 in 0.07 in - ()
Sea Level Pressure  
Sea Level Pressure 29.98 in    
Wind  
Wind Speed 6 mph ()    
Max Wind Speed 13 mph    
Max Gust Speed -    
Visibility 8.8 miles    
Events      
T = Trace of Precipitation, MM = Missing Value Source: Averaged Metar Reports

Daily Weather History Graph

Daily Weather History Graph

Search for Another Location

Airport:

Trip Planner

Search our weather history database for the weather conditions in past years. The results will help you decide how hot, cold, wet, or windy it might be!

Date:

Astronomy

Mar. 18, 2013 Rise Set
Actual Time 5:41 AM CST 5:47 PM CST
Civil Twilight 5:21 AM CST 6:08 PM CST
Nautical Twilight 4:56 AM CST 6:33 PM CST
Astronomical Twilight 4:32 AM CST 6:57 PM CST
Moon 10:41 AM CST (3/18) 11:35 PM CST (3/18)
Length of Visible Light 12h 47m
Length of Day
12h 05m
Waxing Crescent, 41% of the Moon is Illuminated
Mar 18
Waxing Crescent
Mar 19
First Quarter
Mar 27
Full
Apr 2
Last Quarter
Apr 10
New

Hourly Weather History & Observations

Time (CST) Temp. Heat Index Dew Point Humidity Pressure Visibility Wind Dir Wind Speed Gust Speed Precip Events Conditions
12:00 AM 68 °F - 63 °F 78% 29.84 in 12 mi East 5.8 mph - -  
12:00 AM 68.0 °F - 62.6 °F 83% 30.05 in - East 5.8 mph - N/A   Clear
1:00 AM 68.0 °F - 62.6 °F 83% 30.02 in - East 5.8 mph - N/A   Clear
2:00 AM 69.8 °F - 60.8 °F 73% 30.01 in - SE 5.8 mph - N/A   Clear
3:00 AM 70 °F - 61 °F 65% 29.85 in 12 mi ESE 5.8 mph - -  
3:00 AM 69.8 °F - 60.8 °F 73% 30.02 in - ESE 5.8 mph - N/A   Clear
4:00 AM 68.0 °F - 60.8 °F 78% 30.03 in - ESE 3.5 mph - N/A   Clear
5:00 AM 66.2 °F - 60.8 °F 83% 30.04 in - East 4.6 mph - N/A   Clear
6:00 AM 64 °F - 57 °F 72% 29.92 in 12 mi ENE 6.9 mph - -  
6:00 AM 64.4 °F - 57.2 °F 77% 30.06 in - ENE 6.9 mph - N/A   Clear
7:00 AM 69.8 °F - 60.8 °F 73% 30.08 in - East 4.6 mph - N/A   Clear
8:00 AM 75.2 °F - 59.0 °F 57% 30.08 in - SSE 3.5 mph - N/A   Clear
9:00 AM 81 °F - 59 °F 37% 29.90 in 12 mi SW 2.3 mph - -   Clear
9:00 AM 80.6 °F 81.1 °F 59.0 °F 48% 30.08 in - SW 2.3 mph - N/A   Clear
10:00 AM 84.2 °F 83.8 °F 59.0 °F 42% 30.07 in 6.2 mi West 6.9 mph - N/A   Partly Cloudy
11:00 AM 86.0 °F 85.4 °F 59.0 °F 40% 30.05 in 6.2 mi SW 6.9 mph - N/A   Scattered Clouds
12:00 PM 88 °F - 59 °F 27% 29.84 in 12 mi WSW 9.2 mph - -   Partly Cloudy
12:00 PM 87.8 °F 87.1 °F 59.0 °F 38% 30.03 in 6.2 mi WSW 9.2 mph - N/A   Scattered Clouds
1:00 PM 84.2 °F 85.0 °F 62.6 °F 48% 30.00 in 6.2 mi SW 8.1 mph - N/A   Mostly Cloudy
2:00 PM 86.0 °F 87.3 °F 64.4 °F 48% 29.98 in 6.2 mi West 12.7 mph - N/A   Scattered Clouds
3:00 PM 84 °F - 64 °F 42% 29.79 in 12 mi WSW 11.5 mph - -   Mostly Cloudy
3:00 PM 84.2 °F 85.6 °F 64.4 °F 51% 29.97 in 6.2 mi WSW 11.5 mph - N/A   Scattered Clouds
4:00 PM 82.4 °F 83.9 °F 64.4 °F 54% 29.97 in 6.2 mi WSW 12.7 mph - N/A   Scattered Clouds
5:00 PM 80.6 °F 82.3 °F 64.4 °F 58% 29.97 in 6.2 mi WSW 8.1 mph - N/A   Scattered Clouds
6:00 PM 75 °F - 66 °F 67% 29.85 in 12 mi West 8.1 mph - -   Partly Cloudy
6:00 PM 75.2 °F - 66.2 °F 73% 29.99 in 6.2 mi West 8.1 mph - N/A   Scattered Clouds
7:00 PM 73.4 °F - 66.2 °F 78% 30.01 in 6.2 mi WSW 4.6 mph - N/A   Mostly Cloudy
8:00 PM 73.4 °F - 66.2 °F 78% 30.02 in - SSE 2.3 mph - N/A   Clear
9:00 PM 72 °F - 64 °F 71% 29.84 in 12 mi East 4.6 mph - -  
9:00 PM 71.6 °F - 64.4 °F 78% 30.03 in - East 4.6 mph - N/A   Clear
10:00 PM 71.6 °F - 64.4 °F 78% 30.03 in - East 5.8 mph - N/A   Clear
11:00 PM 71.6 °F - 62.6 °F 73% 30.02 in - East 6.9 mph - N/A   Clear